Skip Page Navigation
NASA JPL Caltech
NASA Logo - Jet Propulsion Laboratory + View the NASA Portal
+ Center for Near-Earth Object Studies
JPL Home Earth Solar System Stars & Galaxies Technology
JPL Solar System Dynamics
BODIES ORBITS EPHEMERIDES TOOLS PHYSICAL DATA DISCOVERY FAQ SITE MAP
JPL Small-Body Database Browser
Search: [ help ]  
213351 (2001 SC333)
Classification: Jupiter Trojan          SPK-ID: 2213351
Ephemeris | Orbit Diagram | Orbital Elements | Mission Design | Physical Parameters | Discovery Circumstances ]

[ show orbit diagram ]
Orbital Elements at Epoch 2459200.5 (2020-Dec-17.0) TDB
Reference: JPL 18 (heliocentric ecliptic J2000)
 Element Value Uncertainty (1-sigma)   Units 
e .08190028824403552 5.5977e-08  
a 5.209286961339432 1.5064e-07 au
q 4.782644857659837 3.7051e-07 au
i 12.93668063993234 8.25e-06 deg
node 191.8060448759127 2.5662e-05 deg
peri 118.8479217915452 6.1902e-05 deg
M 277.1821004513179 6.0527e-05 deg
tp 2460199.550773718259
(2023-Sep-12.05077372)
0.0007516 TDB
period 4342.76020641116
11.89
0.00018838
5.158e-07
d
yr
n .08289658716788846 3.5959e-09 deg/d
Q 5.635929065019027 1.6298e-07 au
  Orbit Determination Parameters
   # obs. used (total)      239  
   data-arc span      7516 days (20.58 yr)  
   first obs. used      2000-10-02  
   last obs. used      2021-05-01  
   planetary ephem.      DE441  
   SB-pert. ephem.      SB441-N16  
   condition code      0  
   norm. resid. RMS      .58061  
   source      ORB  
   producer      Otto Matic  
   solution date      2021-May-04 10:39:26  

Additional Information
 Earth MOID = 3.79086 au 
 Jupiter MOID = .0565028 au 
 T_jup = 2.943 
[ show covariance matrix ]

Ephemeris | Orbit Diagram | Orbital Elements | Mission Design | Physical Parameters | Discovery Circumstances ]

Physical Parameter Table
Parameter Symbol Value Units Sigma Reference Notes
absolute magnitude H 13.60   n/a E2021B55  
diameter diameter 10.413 km 0.692 urn:nasa:pds:neowise_diameters_albedos::2.0[jupiter_trojans] (http://adsabs.harvard.edu/abs/2011ApJ...742...40G)  
geometric albedo albedo 0.049   0.014 urn:nasa:pds:neowise_diameters_albedos::2.0[jupiter_trojans] (http://adsabs.harvard.edu/abs/2011ApJ...742...40G)  

213351 (2001 SC333)          Discovered 2001-Sep-19 by LINEAR at Socorro
Reference: 20090509/Numbers.arcLast Updated: 2009-05-11
Ephemeris | Orbit Diagram | Orbital Elements | Mission Design | Physical Parameters | Discovery Circumstances ]
ABOUT SSD CREDITS/AWARDS PRIVACY/COPYRIGHT GLOSSARY LINKS
FirstGov 2021-May-07 14:26 UT
(server date/time)  
NASA Home Page
Site Manager:   Ryan S. Park
Webmaster  Alan B. Chamberlin